www.pogodaiklimat.ru
ПОГОДА в Наро-Фоминске

Архив погоды в Наро-Фоминске (Московская область, Россия)

Время
(UTC), дата
18 16.07
21 16.07
00 17.07
03 17.07
06 17.07
09 17.07
12 17.07
15 17.07
18 17.07
21 17.07
00 18.07
03 18.07
06 18.07
09 18.07
12 18.07
15 18.07
18 18.07
21 18.07
00 19.07
03 19.07
06 19.07
09 19.07
12 19.07
15 19.07
18 19.07
21 19.07
00 20.07
03 20.07
06 20.07
09 20.07
12 20.07
15 20.07
18 20.07
21 20.07
00 21.07
03 21.07
06 21.07
09 21.07
12 21.07
15 21.07
18 21.07
21 21.07
00 22.07
03 22.07
06 22.07
09 22.07
12 22.07
15 22.07
18 22.07
21 22.07
00 23.07
03 23.07
06 23.07
09 23.07
12 23.07
15 23.07
Ветер
(напр.,м/с)
Видим. Явления Облачность Т
(С)
Тd
(С)
f
(%)
Тe
(С)
Тes
(С)
Комфортность P
(гПа)
Po
(гПа)
Тmin
(С)
Tmax
(С)
R
(мм)
R24
(мм)
S
(см)
С 1 10 км 3/0
[Ci fib]
+23.2 +17.2 69 +28 +28 душно 1016.6 994.6 +29.7
штиль 0 10 км ясно +18.8 +16.8 88 +20 +20 1017.5 995.1
штиль 0 10 км ясно +17.6 +16.1 91 +18 +18 1018.5 996.0
штиль 0 10 км 9/0
[Ci fib]
+17.9 +16.7 93 +18 +19 1018.6 996.1 +16.7
СВ 1 10 км 6/0
[Ci fib]
+25.4 +16.4 57 +29 +37 душно 1018.0 996.1 +16.7
С 2 10 км 1/1 1000 м
[Cu med, cong]
+27.5 +15.7 49 +31 +44 душно 1018.0 996.2
СЗ 2 10 км 1/1 600 м
[Cu med, cong]
+29.2 +14.1 40 +31 +42 жарко 1016.5 994.9
В 1 10 км 5/1 600 м
[Cu med, cong Ci]
+29.3 +14.5 40 +31 +34 жарко 1015.5 993.9
штиль 0 10 км 9/5 600 м
[Sc Ac trans Ci]
+22.7 +17.5 72 +28 +28 душно 1015.6 993.6 +30.5
В 1 10 км слаб. ливневой дождь 10/10 300 м
[Cb cap]
+20.8 +18.2 85 +26 +26 душно 1015.6 993.4
штиль 0 10 км {ливн. дождь} 8/0
[Ac trans Ci fib]
+19.1 +18.1 94 +21 +21 комфорт 1015.0 992.8
З 1 4000 м дымка 4/0
[Ac trans Ci fib]
+19.5 +18.8 96 +23 +24 комфорт 1015.1 992.8 +17.9 2
СЗ 2 10 км 9/9 600 м
[Sc]
+22.0 +19.7 87 +28 +28 душно 1015.1 993.0 +17.9 2
СЗ 2 10 км 10/10 600 м
[Cb cap]
+22.0 +19.5 86 +28 +28 душно 1015.3 993.2
СЗ 2 10 км 9/8 600 м
[Cb cap Ac trans]
+25.0 +19.8 73 +31 +32 очень душно 1014.8 992.9
С 1 10 км 9/4 600 м
[Cu Sc Cs]
+25.0 +19.3 71 +30 +32 душно 1013.4 991.6
СЗ 1 10 км 9/4 600 м
[Sc Ac trans Ci sp]
+22.4 +19.6 84 +28 +28 душно 1014.0 992.0 +25.5
штиль 0 10 км 9/9 600 м
[Sc]
+20.5 +18.9 91 +24 +24 комфорт 1013.5 991.3
СЗ 1 10 км в посл. час ливневой дождь 10/10 600 м
[Cb cap]
+19.7 +18.5 93 +24 +24 комфорт 1012.7 990.5
СВ 3 4000 м гроза, ливневой дождь 10/10 300 м
[Cb cap]
+17.8 +17.1 96 +18 +18 1013.6 991.3 +17.7 12
СЗ 1 10 км в посл. час ливневой дождь {гроза} 10/10 600 м
[Cb cap]
+17.7 +17.0 96 +19 +19 1013.6 991.3 +17.3 16
СЗ 1 10 км {ливн. дождь} 9/8 600 м
[Cb cap Ac trans]
+19.6 +17.9 90 +23 +26 комфорт 1013.3 991.1
С 2 10 км {ливн. дождь} 6/3 600 м
[Cu med, cong Ac trans Ci fib]
+23.9 +15.6 60 +27 +33 жарко 1012.0 990.1
З 1 10 км в посл. час ливневой дождь 8/6 600 м
[Cb cap Ac trans Ci fib]
+24.8 +14.6 53 +27 +28 жарко 1010.6 988.8 0.0
Ю 1 10 км в посл. час ливневой дождь 9/9 600 м
[Cb cap]
+17.1 +16.1 94 +18 +18 1011.1 988.7 +25.4 10
З 1 10 км 8/0
[Ac trans Ci fib]
+15.9 +15.2 96 +17 +17 1011.0 988.5
З 1 10 км 8/0
[Ac trans]
+15.6 +15.0 96 +16 +16 1010.0 987.5
З 1 10 км 5/0
[Ac trans Ci fib]
+15.9 +15.2 96 +17 +18 1009.8 987.3 +14.9 10
СЗ 2 10 км 3/1 600 м
[Cu hum Ac trans]
+20.3 +17.1 82 +24 +30 комфорт 1009.2 987.1 +14.9 0.3
СЗ 2 10 км слаб. ливневой дождь 9/8 600 м
[Cb cap Ac trans]
+22.2 +15.5 66 +26 +28 душно 1008.7 986.8
СЗ 3 10 км {ливн. дождь} 9/8 600 м
[Cb cap Ci fib]
+23.6 +15.2 59 +26 +28 жарко 1008.1 986.3
З 1 10 км 6/4 600 м
[Cu med, cong Ac trans]
+22.7 +14.2 59 +26 +28 жарко 1007.9 986.0 0.0
З 2 10 км 5/5 600 м
[Cu Sc]
+19.1 +14.4 74 +21 +21 комфорт 1008.7 986.5 +23.9 0.0
СЗ 1 10 км 3/0
[Ci fib]
+16.4 +13.9 85 +17 +17 1008.8 986.4
З 1 10 км 3/0
[Ac trans]
+14.2 +13.1 93 +14 +14 1009.7 987.1
З 1 10 км 3/0
[Ac trans]
+15.0 +14.2 95 +15 +16 1009.4 986.9 +13.9
СЗ 2 10 км 3/0
[Ac trans]
+20.8 +15.5 72 +25 +31 комфорт 1009.3 987.2 +13.9
З 2 10 км 9/6 300 м
[Cb cap Ac trans Ci fib]
+22.0 +14.3 62 +25 +29 комфорт 1009.1 987.1
З 2 10 км 8/5 600 м
[Cu med, cong Ac trans Ci fib]
+24.3 +12.7 48 +26 +30 жарко 1008.2 986.4
З 3 10 км 9/8 300 м
[Cb cap Ac trans Ci fib]
+22.4 +13.7 58 +26 +26 жарко 1008.6 986.6
З 2 {10} 10 км {ливн. дождь} 5/3 300 м
[Cb cap Ci fib]
+18.0 +15.7 86 +19 +19 1009.4 987.2 +25.9 4
З 1 10 км 8/0
[Ac trans Ci fib]
+15.9 +14.5 91 +17 +17 1009.5 987.0
З 1 10 км 4/0
[Ac trans Ci fib]
+14.3 +13.4 94 +15 +15 1009.6 987.1
З 1 4000 м дымка 6/1 600 м
[Sc Ac trans Ci fib]
+15.1 +14.5 96 +16 +16 1009.8 987.3 +13.1 4
СЗ 2 10 км 9/8 600 м
[Sc Ci fib]
+20.5 +17.3 82 +25 +26 комфорт 1009.4 987.3 +13.1
СЗ 3 10 км 9/8 600 м
[Cb calv Ac trans]
+21.5 +16.1 71 +25 +27 комфорт 1009.1 987.1
С 3 10 км слаб. ливневой дождь 9/8 600 м
[Cb cap Ac trans]
+20.3 +17.2 82 +24 +25 комфорт 1009.7 987.6
В 2 10 км слаб. ливневой дождь 10/10 300 м
[Cb cap]
+18.1 +17.1 94 +19 +19 1010.9 988.6 6
В 1 10 км {ливн. дождь} 9/9 600 м
[Sc]
+17.6 +16.6 94 +19 +19 1011.9 989.5 +22.7 6
СВ 1 10 км 9/9 600 м
[Sc]
+16.9 +15.9 94 +18 +18 1012.3 989.9
СВ 2 10 км 9/9 600 м
[Sc]
+16.1 +14.5 90 +16 +16 1012.9 990.4
С 1 10 км 9/9 600 м
[Sc]
+15.3 +13.8 91 +16 +16 1013.6 991.0 +15.2 0.0
В 2 10 км 9/9 600 м
[Sc]
+18.2 +15.7 85 +19 +20 1013.7 991.3 +15.2
ЮВ 2 10 км 9/8 600 м
[Cu Sc Ac trans]
+22.4 +14.6 61 +26 +28 жарко 1013.9 991.8
В 2 10 км 6/5 600 м
[Cu med, cong Ac trans]
+22.0 +12.9 56 +25 +29 комфорт 1013.9 991.8
В 2 10 км 3/3 600 м
[Cu med, cong]
+22.4 +9.7 44 +24 +26 комфорт 1013.5 991.4
Местоположение метеостанции Наро-Фоминск (Московская область, Россия): широта 55.38 долгота 36.70 высота над уровнем моря 193 м.
В архиве по умолчанию представлена погода в Наро-Фоминске за последнюю неделю. Архивные данные за месяц целиком и за предыдущие месяцы, начиная с января 2011 года, Вы можете получить, выбрав интересующий диапазон дат из раскрывающегося списка и нажав кнопку "Найти!".
*Определитесь, кто Вы:
Внимание! Время в таблицах - всемирное. Для получения местного времени необходимо прибавить поправку, которая равна 3 ч.
Некоторые строки с данными для отдельных станций могут быть выделены курсивом. Это означает, что фактические данные отсутствуют по различным причинам, а приведенные значения являются расчетными модельными данными для данного пункта наблюдений.
Смотрите также архив погоды в соседних городах и на ближайших метеорологических станциях:
Партнеры нашего сайта:      
Пояснения к столбцам:
  • Ветер - указаны скорость ветра в м/с - средняя за 10 мин, порывы в срок и между сроками (в фигурных скобках) и направление, откуда дует ветер: С - северный,
  • СВ - северо-восточный, В - восточный, ЮВ - юго-восточный, Ю - южный, ЮЗ - юго-западный, З - западный, СЗ - северо-западный.
  • Видимость - горизонтальная дальность видимости в метрах или километрах. При видимости от 1 до 10 км при отсутствии осадков обычно наблюдается дымка, при ухудшении видимости до 1 км и менее - туман. В сухую погоду видимость может ухудшаться дымом, пылью или мглою.
  • Явления - указаны атмосферные явления, наблюдавшиеся в срок или в последний час перед сроком; фигурными скобками обозначены явления, наблюдавшиеся между сроками (за 1-3 часа до срока); квадратными скобками обозначены град или гололедные отложения с указанием их диаметра в мм.
  • Облачность - указаны через наклонную черту общая и нижняя облачность в баллах и высота нижней границы облаков в метрах; квадратными скобками обозначены формы облаков: Ci - перистые, Cs - перисто-слоистые, Cc - перисто-кучевые, Ac - высококучевые, As - высокослоистые, Sc - слоисто-кучевые, Ns - слоисто-дождевые, Cu - кучевые, Cb - кучево-дождевые. Подробнее классификацию облаков см. в Атласе облаков (PDF).
  • T - Температура воздуха - температура, измеренная на высоте 2 м над землей.
  • Td - Температура точки росы - температура, при понижении до которой содержащийся в воздухе водяной пар достигнет насыщения.
  • f - Относительная влажность воздуха - влажноcть воздуха, измеренная на высоте 2 м над землей.
  • Te - Эффективная температура - температура, которую ощущает одетый по сезону человек в тени. Характеристика душности погоды. При расчете учитывается влияние влажности воздуха и скорости ветра на теплоощущения человека.
  • Tes - Эффективная температура на солнце - температура, которую ощущает человек, с поправкой на солнечный нагрев. Характеристика знойности погоды. Зависит от высоты солнца над горизонтом, облачности и скорости ветра. Ночью, в пасмурную погоду, а также при ветре 12 м/с и более поправка равна нулю.
  • P - Атмосферное давление - приведенное к уровню моря атмосферное давление.
  • Po - Атмосферное давление - измеренное на уровне метеостанции атмосферное давление.
  • Tmin - Минимальная температура - минимум температуры воздуха на высоте 2 м над землей.
  • Tmax - Максимальная температура - максимум температуры воздуха на высоте 2 м над землей.
  • R - Количество осадков - Количество выпавших осадков за период времени, мм. При наведении курсора мыши на число - период времени, за который выпало указанное количество осадков.
  • R24 - Количество осадков - Количество выпавших осадков за 24 часа, мм.
  • S - Снежный покров - Высота снежного покрова, см. При наведении курсора мыши на число - состояние снежного покрова и степень покрытия местности в баллах.